map of SSN home
Great Circle Mapper logo
SSN - Airport
Location
City:  Seongnam, Republic of Korea (South Korea)
Name:Seoul AB
ICAO / IATA:RKSM / SSN

Details
Type:Airport (Aerodrome, Airfield)
Use:Military, International (customs port of entry)
Latitude:37°26'45"N (37.445833)
Longitude:127°06'50"E (127.113889)
Datum:WGS 1984
Elevation:92 ft (28 m)
Runways:2
Longest:9700 × 150 ft (2957 × 45.5 m), paved

Time
Time Zone:UTC+9
Local Time:

Weather
METAR:RKSM 300500Z 30006KT 9999 BKN040 22/14 A3004
TAF:RKSM 300500Z 3006/0112 06006KT 9999 SCT040
TEMPO 3006/3010 06006KT 9999 BKN040 TN13/3021Z TX24/0106Z

Related Locations
Nearby:
Farthest:SUPE: 12225 mi / 19674 km
Punta el Este [El Jagüel Airport], Maldonado, UY

Find:

   beyond  
but within

Other Information
Maps:
NOTAMs:
Links:
Sources:

  
flag of Republic of Korea (South Korea)   

Sectional Chart

Flight Planning
at skyvector.com

Satellite Image

Google Maps Satellite View

 

Copyright © 2004-2014 Karl L. Swartz. All rights reserved.
The Great Circle Mapper name and logo are trademarks of the Great Circle Mapper.
All other trademarks mentioned herein belong to their respective owners.
Please see credits for attibutions and further copyright information.

  Follow gcmap on Facebook Follow gcmap on Twitter

hCard Microformat

Geo Microformat